Location: Jarosław
(50.0191°N, 22.6835°E)
Time: 08:45:26
(UTC+02:00)

ISS - Pass Details

Date: 27 March 2019
Orbit: 408 x 410 km, 51.6° (Epoch: 21 April)

Event Time Altitude Azimuth Distance (km) Brightness Sun altitude
Rises 18:33:39 0° 248° (WSW) 2,332 1.0 -7.3°
Reaches altitude 10° 18:35:44 10° 247° (WSW) 1,472 -0.1 -7.6°
Maximum altitude 18:39:02 79° 162° (SSE) 422 -3.8 -8.2°
Drops below altitude 10° 18:42:20 10° 75° (ENE) 1,476 -1.5 -8.7°
Enters shadow 18:42:29 - 74° (ENE) 1,536 -1.4 -8.7°
